Погода в Няшабоже

Россия / Республика Коми     65°27′58″N   53°50′34″E
темп.,
°C
ветер,
м/с
пор.,
м/с
влажн.,
%
обл.,
%
осадки,
мм/ч
давл.,
гПа
погр.,
м
23 апреля, пт
пт2300:00+3ю41092100 0.1 1015931
03:00+3ю41295100 0.1 1015738
06:00+4ю51395100 0.3 10141157
09:00+4ююз51297100 0.8 10161089
12:00+7юз486899 0.4 10171427
15:00+6зюз487089 0.4 10201165
18:00+5юз377898 0.1 1021394
21:00+2юз22855 0.1 102312
24 апреля, сб
сб2400:00+1ю118817 0.0 102310
03:00+1юв229158 0.0 102415
06:00+4вюв258619 0.0 1024148
09:00+8юв3577100 0.0 1023378
12:00+11ююв356449 0.0 1023588
15:00+12ююв355755 0.0 1022825
18:00+10юв277166 0.0 1022221
21:00+6юв238373 0.0 102245
25 апреля, вс
вс2500:00+6в2883100 0.0 1021181
03:00+6вюв4127697 0.0 1020492
06:00+6вюв41273100 0.0 1019580
09:00+9вюв51060100 0.0 10181507
12:00+11юв51056100 0.1 10161752
15:00+10вюв5958100 0.2 10141517
18:00+9вюв51062100 0.0 10131098
21:00+7вюв4107586 0.0 1012618
26 апреля, пн
пн2600:00+5в31084100 0.0 1010468
03:00+4в3118968 0.0 1009480
06:00+5вюв397885 0.0 1008661
09:00+6вюв4679100 0.1 1007868
12:00+8вюв2464100 0.2 10061173
15:00+9юв2358100 0.4 10051160
18:00+8ююз116998 0.2 100444
21:00+5зюз2285100 0.2 100416
27 апреля, вт
вт2700:00+4зюз119099 0.0 100418
03:00+4зюз1190100 0.0 100430
06:00+5юз128798 0.0 1004102
09:00+6ююз1275100 0.1 1004793
12:00+7ююз227197 0.4 1004970
15:00+8ю226398 0.6 1003996
18:00+7ю2371100 0.3 1003335
21:00+5ююз2584100 0.6 1003298